Location: Rowland
(34.5359°N, 79.2929°W)
Time: 16:58:21
(UTC+00:00)

A-11 Canister half - Pass Details

Date: 08 October 2022
Orbit: 1515 x 1684 km, 47.2° (Epoch: 06 December)

Event Time Altitude Azimuth Distance (km) Brightness Sun altitude
Rises 01:37:54 0° 260° (W) 4,857 12.4 -34.4°
Reaches altitude 10° 01:41:14 10° 266° (W) 3,849 11.8 -35.1°
Maximum altitude 01:50:37 49° 340° (NNW) 1,966 9.6 -36.9°
Enters shadow 01:53:32 39° 22° (NNE) 2,206 9.7 -37.4°
